TimeEST,TemperatureF,Dew PointF,Humidity,Sea Level PressureIn,VisibilityMPH,Wind Direction,Wind SpeedMPH,Gust SpeedMPH,PrecipitationIn,Events,Conditions,WindDirDegrees,DateUTC
12:02 AM,26.6,24.8,93,30.50,1.2,Calm,Calm,-,N/A,,Clear,0,2012-11-17 05:02:00
12:10 AM,24.8,23.0,93,30.50,2.0,Calm,Calm,-,N/A,,Clear,0,2012-11-17 05:10:00
12:28 AM,28.4,24.8,86,30.51,5.0,Calm,Calm,-,N/A,,Clear,0,2012-11-17 05:28:00
12:53 AM,25.0,23.0,92,30.53,3.0,Calm,Calm,-,N/A,,Clear,0,2012-11-17 05:53:00
1:14 AM,26.6,24.8,93,30.51,1.5,Calm,Calm,-,N/A,,Clear,0,2012-11-17 06:14:00
1:17 AM,24.8,23.0,93,30.51,0.8,Calm,Calm,-,N/A,,Clear,0,2012-11-17 06:17:00
1:28 AM,26.6,24.8,93,30.51,1.5,Calm,Calm,-,N/A,,Clear,0,2012-11-17 06:28:00
1:30 AM,26.6,24.8,93,30.51,3.0,Calm,Calm,-,N/A,,Clear,0,2012-11-17 06:30:00
1:53 AM,25.0,23.0,92,30.54,4.0,Calm,Calm,-,N/A,,Clear,0,2012-11-17 06:53:00
2:28 AM,26.6,24.8,93,30.53,2.0,Calm,Calm,-,N/A,,Clear,0,2012-11-17 07:28:00
2:38 AM,24.8,21.2,86,30.53,4.0,Calm,Calm,-,N/A,,Clear,0,2012-11-17 07:38:00
2:53 AM,23.0,21.9,96,30.55,4.0,Calm,Calm,-,N/A,,Clear,0,2012-11-17 07:53:00
2:57 AM,24.8,21.2,86,30.53,1.8,Calm,Calm,-,N/A,,Clear,0,2012-11-17 07:57:00
3:07 AM,23.0,21.2,93,30.53,4.0,Calm,Calm,-,N/A,,Clear,0,2012-11-17 08:07:00
3:53 AM,23.0,21.9,96,30.55,2.5,Calm,Calm,-,N/A,,Clear,0,2012-11-17 08:53:00
4:02 AM,23.0,21.2,93,30.52,1.5,Calm,Calm,-,N/A,,Clear,0,2012-11-17 09:02:00
4:13 AM,24.8,21.2,86,30.53,3.0,Calm,Calm,-,N/A,,Clear,0,2012-11-17 09:13:00
4:28 AM,23.0,21.2,93,30.53,1.8,Calm,Calm,-,N/A,,Clear,0,2012-11-17 09:28:00
4:31 AM,24.8,21.2,86,30.53,0.8,Calm,Calm,-,N/A,,Clear,0,2012-11-17 09:31:00
4:53 AM,23.0,21.9,96,30.56,0.2,Calm,Calm,-,N/A,Fog,Light Freezing Fog,0,2012-11-17 09:53:00
5:06 AM,23.0,21.2,93,30.54,2.0,Calm,Calm,-,N/A,,Clear,0,2012-11-17 10:06:00
5:13 AM,24.8,23.0,93,30.54,6.0,Calm,Calm,-,N/A,,Clear,0,2012-11-17 10:13:00
5:53 AM,23.0,21.0,92,30.58,7.0,Calm,Calm,-,N/A,,Clear,0,2012-11-17 10:53:00
6:53 AM,21.9,19.9,92,30.61,6.0,Calm,Calm,-,N/A,,Clear,0,2012-11-17 11:53:00
7:53 AM,24.1,21.9,91,30.62,5.0,Calm,Calm,-,N/A,,Clear,0,2012-11-17 12:53:00
8:53 AM,32.0,30.0,92,30.62,4.0,Calm,Calm,-,N/A,,Clear,0,2012-11-17 13:53:00
9:53 AM,43.0,34.0,71,30.63,7.0,Calm,Calm,-,N/A,,Clear,0,2012-11-17 14:53:00
10:53 AM,48.0,30.0,50,30.63,10.0,SSE,4.6,-,N/A,,Clear,150,2012-11-17 15:53:00
11:53 AM,50.0,30.9,48,30.61,9.0,Variable,6.9,-,N/A,,Clear,0,2012-11-17 16:53:00
12:53 PM,51.1,32.0,48,30.60,9.0,South,9.2,-,N/A,,Clear,170,2012-11-17 17:53:00
1:53 PM,52.0,32.0,47,30.58,10.0,SSE,6.9,-,N/A,,Clear,160,2012-11-17 18:53:00
2:53 PM,52.0,33.1,49,30.58,10.0,SE,4.6,-,N/A,,Clear,140,2012-11-17 19:53:00
3:53 PM,51.1,32.0,48,30.58,10.0,SSE,8.1,-,N/A,,Clear,160,2012-11-17 20:53:00
4:53 PM,48.0,32.0,54,30.58,10.0,SE,5.8,-,N/A,,Clear,130,2012-11-17 21:53:00
5:53 PM,43.0,32.0,65,30.58,9.0,SE,4.6,-,N/A,,Clear,130,2012-11-17 22:53:00
6:53 PM,36.0,30.9,82,30.58,7.0,Calm,Calm,-,N/A,,Clear,0,2012-11-17 23:53:00
7:53 PM,33.1,30.0,89,30.58,5.0,North,3.5,-,N/A,,Clear,10,2012-11-18 00:53:00
8:53 PM,30.9,27.0,85,30.58,4.0,Calm,Calm,-,N/A,,Clear,0,2012-11-18 01:53:00
9:53 PM,28.9,28.0,96,30.57,3.0,Calm,Calm,-,N/A,,Clear,0,2012-11-18 02:53:00
10:07 PM,28.4,26.6,93,30.55,2.5,Calm,Calm,-,N/A,,Clear,0,2012-11-18 03:07:00
10:53 PM,28.9,28.0,96,30.57,2.0,Calm,Calm,-,N/A,,Clear,0,2012-11-18 03:53:00
11:04 PM,28.4,26.6,93,30.54,3.0,Calm,Calm,-,N/A,,Clear,0,2012-11-18 04:04:00
11:18 PM,28.4,26.6,93,30.54,2.5,Calm,Calm,-,N/A,,Clear,0,2012-11-18 04:18:00
11:42 PM,30.2,28.4,93,30.54,1.5,Calm,Calm,-,N/A,,Clear,0,2012-11-18 04:42:00
11:53 PM,28.9,27.0,92,30.57,2.5,Calm,Calm,-,N/A,,Clear,0,2012-11-18 04:53:00